Find Starlink 37655

NORAD ID: 69142 Int'l Des: 2026-110 Owner: SPXS Country: US Constellation: starlink operational
LEOCIRCULARRETROGRADE

現在のビュー

3D地球を読み込み中...

About Starlink 37655

Starlink 37655 (NORAD 69142) is a starlink constellation satellite (v2 mini) launched May 20, 2026 by SPXS of US. It operates in LEO, CIRCULAR, RETROGRADE orbit with a mass of 575.00 kg.

次回通過

Passes for default location (London). Set your location on the main map for personalized predictions.

高度履歴

Loading altitude history...

軌道要素

1 69142U 26110U 26235.79711583 .00020138 00000-0 62421-3 0 9993
2 69142 97.2839 71.2946 0001416 91.2673 268.8732 15.33456516 15978
Epoch: Aug 23, 2026 • Age: 12 hours

現在のステータス

高度 484.7 km
遠地点 / 近地点 N/A
速度 7.62 km/s
衛星直下点 -47.63°S, 4.54°W
打ち上げ日 May 20, 2026
運用期間 0.2 years
タイプ internet

技術仕様

分類 Payload
質量 575.00 kg
乾燥質量 530.00 kg
総質量 575.00 kg
長さ 0.30 m
直径 4.10 m
スパン 29.00 m
形状 Box + pan
製造者 SPXS
バスタイプ Starlink V2MO
フェーズステータス In Orbit
所有者/国 SPXS/US

Most Searched